Location: Morning Glory
(31.5701°N, 106.2158°W)
Time: 18:25:47
(UTC+00:00)

N. Korean satellite - Pass Details

Date: 27 November 2022
Orbit: 407 x 444 km, 97.3° (Epoch: 28 January)

Event Time Altitude Azimuth Distance (km) Brightness Sun altitude
Rises 12:43:51 0° 359° (N) 2,518 10.0 -12.7°
Reaches altitude 10° 12:46:03 10° 350° (N) 1,634 9.0 -12.2°
Maximum altitude 12:49:12 32° 286° (WNW) 823 7.2 -11.6°
Drops below altitude 10° 12:52:19 10° 221° (SW) 1,607 9.0 -10.9°
Sets 12:54:28 0° 211° (SSW) 2,468 10.0 -10.5°
